TimeCST,TemperatureF,Dew PointF,Humidity,Sea Level PressureIn,VisibilityMPH,Wind Direction,Wind SpeedMPH,Gust SpeedMPH,PrecipitationIn,Events,Conditions,WindDirDegrees,DateUTC
12:15 AM,18.5,16.7,93,30.31,10.0,Calm,Calm,-,N/A,,Clear,0,2013-03-02 06:15:00
12:35 AM,19.4,17.8,93,30.31,10.0,Calm,Calm,-,N/A,,Clear,0,2013-03-02 06:35:00
12:55 AM,16.2,13.8,90,30.31,10.0,Calm,Calm,-,N/A,,Clear,0,2013-03-02 06:55:00
1:15 AM,17.4,15.6,93,30.31,10.0,Calm,Calm,-,N/A,,Clear,0,2013-03-02 07:15:00
1:35 AM,16.9,15.1,93,30.32,10.0,Calm,Calm,-,N/A,,Clear,0,2013-03-02 07:35:00
1:55 AM,15.3,13.3,92,30.32,10.0,Calm,Calm,-,N/A,,Clear,0,2013-03-02 07:55:00
2:15 AM,15.1,13.5,93,30.31,10.0,Calm,Calm,-,N/A,,Clear,0,2013-03-02 08:15:00
2:35 AM,14.9,13.1,93,30.31,10.0,NW,3.5,-,N/A,,Clear,320,2013-03-02 08:35:00
3:15 AM,12.6,10.2,90,30.32,10.0,West,5.8,-,N/A,,Clear,280,2013-03-02 09:15:00
3:35 AM,13.6,11.7,92,30.32,10.0,West,3.5,-,N/A,,Clear,280,2013-03-02 09:35:00
3:55 AM,14.0,12.2,93,30.31,10.0,West,4.6,-,N/A,,Clear,270,2013-03-02 09:55:00
4:15 AM,14.2,12.0,91,30.30,10.0,Calm,Calm,-,N/A,,Clear,0,2013-03-02 10:15:00
4:35 AM,14.5,12.4,91,30.30,10.0,Calm,Calm,-,N/A,,Clear,0,2013-03-02 10:35:00
4:55 AM,14.9,12.9,92,30.30,7.0,Calm,Calm,-,N/A,,Clear,0,2013-03-02 10:55:00
5:15 AM,15.1,13.1,92,30.29,7.0,Calm,Calm,-,N/A,,Clear,0,2013-03-02 11:15:00
5:55 AM,13.6,11.5,91,30.30,7.0,West,3.5,-,N/A,,Scattered Clouds,260,2013-03-02 11:55:00
6:35 AM,16.0,14.0,92,30.30,7.0,Calm,Calm,-,N/A,,Scattered Clouds,0,2013-03-02 12:35:00
6:55 AM,16.5,14.7,93,30.28,7.0,Calm,Calm,-,N/A,,Mostly Cloudy,0,2013-03-02 12:55:00
7:15 AM,17.6,15.8,93,30.28,7.0,Calm,Calm,-,N/A,,Overcast,0,2013-03-02 13:15:00
7:35 AM,19.0,17.4,93,30.27,5.0,SW,3.5,-,N/A,,Overcast,220,2013-03-02 13:35:00
7:55 AM,20.5,19.2,95,30.27,7.0,SSW,4.6,-,N/A,,Overcast,200,2013-03-02 13:55:00
8:15 AM,22.1,21.0,96,30.27,7.0,South,4.6,-,N/A,,Scattered Clouds,190,2013-03-02 14:15:00
8:35 AM,24.1,22.8,95,30.27,10.0,South,3.5,-,N/A,,Mostly Cloudy,170,2013-03-02 14:35:00
8:55 AM,24.6,21.6,88,30.28,10.0,South,4.6,-,N/A,,Overcast,180,2013-03-02 14:55:00
9:15 AM,25.2,21.9,87,30.27,10.0,SSE,5.8,-,N/A,,Overcast,160,2013-03-02 15:15:00
9:35 AM,25.5,21.6,85,30.27,10.0,South,6.9,-,N/A,,Overcast,170,2013-03-02 15:35:00
9:55 AM,26.2,22.1,84,30.27,10.0,SSE,5.8,-,N/A,,Overcast,160,2013-03-02 15:55:00
10:15 AM,27.0,22.5,83,30.26,10.0,South,6.9,-,N/A,,Overcast,170,2013-03-02 16:15:00
10:35 AM,27.9,22.8,81,30.25,10.0,South,8.1,-,N/A,,Overcast,190,2013-03-02 16:35:00
10:55 AM,28.9,23.0,78,30.25,10.0,South,6.9,-,N/A,,Overcast,180,2013-03-02 16:55:00
11:15 AM,29.8,23.5,77,30.24,10.0,South,6.9,-,N/A,,Overcast,190,2013-03-02 17:15:00
11:35 AM,31.5,24.3,75,30.22,10.0,South,8.1,-,N/A,,Mostly Cloudy,180,2013-03-02 17:35:00
11:55 AM,32.4,25.0,74,30.22,10.0,SSE,9.2,-,N/A,,Clear,160,2013-03-02 17:55:00
12:15 PM,32.9,25.0,73,30.21,10.0,South,9.2,-,N/A,,Clear,180,2013-03-02 18:15:00
12:35 PM,33.4,25.3,72,30.21,10.0,South,10.4,-,N/A,,Clear,180,2013-03-02 18:35:00
12:55 PM,34.2,25.7,71,30.20,10.0,South,10.4,-,N/A,,Scattered Clouds,180,2013-03-02 18:55:00
1:15 PM,34.9,26.4,71,30.19,10.0,South,11.5,-,N/A,,Overcast,190,2013-03-02 19:15:00
1:35 PM,35.1,27.0,72,30.18,10.0,South,12.7,-,N/A,,Mostly Cloudy,180,2013-03-02 19:35:00
1:55 PM,35.6,27.3,72,30.18,10.0,South,10.4,-,N/A,,Scattered Clouds,180,2013-03-02 19:55:00
2:15 PM,35.8,28.0,73,30.16,10.0,South,12.7,-,N/A,,Clear,170,2013-03-02 20:15:00
2:35 PM,36.5,28.2,72,30.15,10.0,South,12.7,17.3,N/A,,Clear,180,2013-03-02 20:35:00
2:55 PM,36.5,28.4,72,30.13,10.0,South,12.7,18.4,N/A,,Clear,180,2013-03-02 20:55:00
3:15 PM,37.0,28.4,71,30.13,10.0,South,12.7,-,N/A,,Clear,190,2013-03-02 21:15:00
3:35 PM,36.7,28.4,72,30.13,10.0,South,11.5,17.3,N/A,,Clear,180,2013-03-02 21:35:00
3:55 PM,37.2,28.6,71,30.12,10.0,SSW,15.0,-,N/A,,Clear,200,2013-03-02 21:55:00
4:15 PM,36.7,28.9,74,30.11,10.0,South,12.7,-,N/A,,Clear,190,2013-03-02 22:15:00
4:35 PM,37.0,29.3,74,30.11,10.0,South,16.1,-,N/A,,Clear,190,2013-03-02 22:35:00
4:55 PM,37.4,29.8,74,30.11,10.0,South,11.5,-,N/A,,Clear,180,2013-03-02 22:55:00
5:15 PM,37.4,30.0,75,30.11,10.0,South,10.4,-,N/A,,Clear,180,2013-03-02 23:15:00
5:55 PM,36.7,30.0,77,30.11,10.0,South,8.1,-,N/A,,Clear,180,2013-03-02 23:55:00
6:15 PM,35.8,30.2,80,30.10,10.0,South,8.1,-,N/A,,Clear,180,2013-03-03 00:15:00
6:35 PM,35.4,30.2,81,30.10,10.0,South,8.1,-,N/A,,Clear,180,2013-03-03 00:35:00
6:55 PM,34.9,30.2,83,30.09,10.0,South,6.9,-,N/A,,Clear,180,2013-03-03 00:55:00
7:15 PM,34.7,30.6,85,30.09,10.0,South,8.1,-,N/A,,Clear,180,2013-03-03 01:15:00
7:35 PM,34.7,30.7,85,30.09,10.0,South,9.2,-,N/A,,Clear,190,2013-03-03 01:35:00
7:55 PM,34.3,30.9,87,30.08,10.0,SSW,9.2,-,N/A,,Clear,200,2013-03-03 01:55:00
8:15 PM,33.8,30.9,89,30.07,10.0,SSW,10.4,-,N/A,,Clear,200,2013-03-03 02:15:00
8:35 PM,34.0,30.9,89,30.07,10.0,SSW,9.2,-,N/A,,Clear,200,2013-03-03 02:35:00
8:55 PM,33.8,30.9,89,30.07,10.0,South,9.2,-,N/A,,Clear,190,2013-03-03 02:55:00
9:15 PM,34.0,30.7,88,30.06,10.0,South,8.1,-,N/A,,Clear,190,2013-03-03 03:15:00
9:35 PM,34.0,30.9,89,30.05,10.0,South,10.4,-,N/A,,Clear,190,2013-03-03 03:35:00
9:55 PM,33.8,30.9,89,30.04,10.0,South,11.5,16.1,N/A,,Clear,190,2013-03-03 03:55:00
10:15 PM,33.8,30.9,89,30.05,10.0,SSW,10.4,-,N/A,,Scattered Clouds,210,2013-03-03 04:15:00
10:35 PM,33.6,30.9,90,30.04,10.0,SSW,11.5,-,N/A,,Scattered Clouds,200,2013-03-03 04:35:00
10:55 PM,33.3,30.9,91,30.03,10.0,SSW,11.5,16.1,N/A,,Clear,200,2013-03-03 04:55:00
11:15 PM,33.1,30.7,91,30.03,10.0,SSW,9.2,-,N/A,,Clear,210,2013-03-03 05:15:00
11:35 PM,32.5,30.6,92,30.01,10.0,SSW,10.4,-,N/A,,Clear,210,2013-03-03 05:35:00
11:55 PM,32.0,30.2,93,30.01,7.0,SSW,9.2,-,N/A,,Clear,210,2013-03-03 05:55:00